When you browse on this site, cookies collect data to enhance your experience and personalize the content and advertising you see.
Visit our Privacy Policy to learn more. By continuing to use the site, you agree to this use of cookies and data.
  • Em Portugal
  • Lista de países
  • Para 7 dias
  • Temperatura da água
  • Mapa do tempo
  • Widgets de tempo
  • user-avatar
    Iniciar Sessão

    Previsão horária em Chien

    Hoje, 7 Abril, Terça-feira

    Tempo Temperatura Precipitação Vento Pressão Humidade
    00:00 +26°C° 1.4 mm 1 m/s 740 mmHg 97%
    01:00 +25°C° 1.4 mm 1 m/s 739 mmHg 97%
    02:00 +25°C° 1.4 mm 1 m/s 739 mmHg 97%
    03:00 +25°C° 0 mm 1 m/s 739 mmHg 97%
    04:00 +25°C° 0 mm 1 m/s 739 mmHg 96%
    05:00 +25°C° 0 mm 1 m/s 739 mmHg 95%
    06:00 +26°C° 0 mm 1 m/s 739 mmHg 93%
    07:00 +27°C° 0 mm 1 m/s 740 mmHg 90%
    08:00 +27°C° 0 mm 1 m/s 740 mmHg 88%
    09:00 +29°C° 0 mm 1 m/s 740 mmHg 82%
    10:00 +30°C° 0 mm 1 m/s 740 mmHg 76%
    11:00 +31°C° 0 mm 1 m/s 739 mmHg 70%
    12:00 +32°C° 0 mm 1 m/s 739 mmHg 67%
    13:00 +33°C° 0 mm 1 m/s 739 mmHg 65%
    14:00 +33°C° 0 mm 1 m/s 738 mmHg 62%
    15:00 +32°C° 2.1 mm 1 m/s 738 mmHg 71%
    16:00 +30°C° 2.1 mm 1 m/s 738 mmHg 81%
    17:00 +29°C° 2.1 mm 1 m/s 738 mmHg 90%
    18:00 +28°C° 0.3 mm 1 m/s 738 mmHg 92%
    19:00 +27°C° 0.3 mm 1 m/s 739 mmHg 93%
    20:00 +26°C° 0.3 mm 1 m/s 740 mmHg 95%
    21:00 +26°C° 0 mm 1 m/s 740 mmHg 95%
    22:00 +26°C° 0 mm 1 m/s 740 mmHg 96%
    23:00 +26°C° 0 mm 1 m/s 740 mmHg 96%

    Amanhã, 8 Abril, Quarta-feira

    Tempo Temperatura Precipitação Vento Pressão Humidade
    00:00 +26°C° 0 mm 1 m/s 739 mmHg 97%
    01:00 +26°C° 0 mm 1 m/s 739 mmHg 97%
    02:00 +25°C° 0 mm 1 m/s 738 mmHg 98%
    03:00 +23°C° 0 mm 0 m/s 738 mmHg 98%
    04:00 +23°C° 0 mm 0 m/s 738 mmHg 98%
    05:00 +23°C° 0 mm 0 m/s 738 mmHg 99%
    06:00 +26°C° 0 mm 1 m/s 739 mmHg 94%
    07:00 +27°C° 0 mm 1 m/s 739 mmHg 89%
    08:00 +29°C° 0 mm 1 m/s 740 mmHg 84%
    09:00 +30°C° 0 mm 1 m/s 740 mmHg 77%
    10:00 +32°C° 0 mm 1 m/s 739 mmHg 70%
    11:00 +34°C° 0 mm 2 m/s 739 mmHg 63%
    12:00 +33°C° 0 mm 1 m/s 739 mmHg 63%
    13:00 +33°C° 0 mm 1 m/s 738 mmHg 62%
    14:00 +34°C° 0 mm 1 m/s 737 mmHg 62%
    15:00 +32°C° 1.1 mm 1 m/s 737 mmHg 69%
    16:00 +31°C° 1.1 mm 1 m/s 737 mmHg 76%
    17:00 +30°C° 1.1 mm 1 m/s 737 mmHg 83%
    18:00 +29°C° 1.1 mm 1 m/s 737 mmHg 86%
    19:00 +28°C° 1.1 mm 2 m/s 738 mmHg 90%
    20:00 +27°C° 1.1 mm 2 m/s 738 mmHg 93%
    21:00 +26°C° 0.2 mm 2 m/s 738 mmHg 94%
    22:00 +26°C° 0.2 mm 2 m/s 739 mmHg 95%
    23:00 +26°C° 0.2 mm 1 m/s 739 mmHg 97%

    Depois de amanhã, 9 Abril, Quinta-feira

    Tempo Temperatura Precipitação Vento Pressão Humidade
    00:00 +26°C° 0.2 mm 1 m/s 739 mmHg 97%
    01:00 +26°C° 0.2 mm 1 m/s 738 mmHg 97%
    02:00 +26°C° 0.2 mm 1 m/s 738 mmHg 98%
    03:00 +25°C° 0 mm 1 m/s 738 mmHg 98%
    04:00 +25°C° 0 mm 1 m/s 738 mmHg 98%
    05:00 +25°C° 0 mm 1 m/s 738 mmHg 98%
    06:00 +27°C° 0 mm 1 m/s 739 mmHg 92%
    07:00 +28°C° 0 mm 1 m/s 739 mmHg 86%
    08:00 +30°C° 0 mm 1 m/s 740 mmHg 81%
    09:00 +31°C° 0.2 mm 1 m/s 739 mmHg 74%
    10:00 +33°C° 0.2 mm 1 m/s 739 mmHg 67%
    11:00 +34°C° 0.2 mm 1 m/s 739 mmHg 61%
    12:00 +34°C° 1.5 mm 1 m/s 738 mmHg 65%
    13:00 +33°C° 1.5 mm 1 m/s 737 mmHg 69%
    14:00 +33°C° 1.5 mm 1 m/s 736 mmHg 73%
    15:00 +31°C° 1.3 mm 1 m/s 737 mmHg 78%
    16:00 +30°C° 1.3 mm 1 m/s 737 mmHg 83%
    17:00 +29°C° 1.3 mm 1 m/s 737 mmHg 89%
    18:00 +28°C° 0.1 mm 1 m/s 737 mmHg 90%
    19:00 +27°C° 0.1 mm 1 m/s 738 mmHg 91%
    20:00 +26°C° 0.1 mm 1 m/s 738 mmHg 93%
    21:00 +26°C° 0 mm 1 m/s 738 mmHg 94%
    22:00 +26°C° 0 mm 1 m/s 738 mmHg 95%
    23:00 +26°C° 0 mm 1 m/s 738 mmHg 96%

    10 Abril, Sexta-feira

    Tempo Temperatura Precipitação Vento Pressão Humidade
    00:00 +25°C° 0 mm 1 m/s 738 mmHg 97%
    01:00 +23°C° 0 mm 0 m/s 738 mmHg 98%
    02:00 +23°C° 0 mm 0 m/s 737 mmHg 99%
    03:00 +23°C° 0 mm 0 m/s 737 mmHg 99%
    04:00 +23°C° 0 mm 0 m/s 737 mmHg 99%
    05:00 +23°C° 0 mm 0 m/s 738 mmHg 99%
    06:00 +26°C° 0 mm 1 m/s 738 mmHg 93%
    07:00 +28°C° 0 mm 1 m/s 738 mmHg 87%
    08:00 +29°C° 0 mm 1 m/s 739 mmHg 81%
    09:00 +32°C° 0 mm 1 m/s 739 mmHg 69%
    10:00 +35°C° 0 mm 1 m/s 739 mmHg 57%
    11:00 +36°C° 0 mm 0 m/s 739 mmHg 46%
    12:00 +35°C° 0 mm 0 m/s 738 mmHg 45%
    13:00 +34°C° 0 mm 0 m/s 737 mmHg 45%
    14:00 +36°C° 0 mm 1 m/s 736 mmHg 45%
    15:00 +34°C° 0.5 mm 1 m/s 737 mmHg 54%
    16:00 +33°C° 0.5 mm 1 m/s 737 mmHg 62%
    17:00 +31°C° 0.5 mm 2 m/s 737 mmHg 70%
    18:00 +30°C° 0.5 mm 1 m/s 737 mmHg 77%
    19:00 +28°C° 0.5 mm 1 m/s 738 mmHg 84%
    20:00 +27°C° 0.5 mm 1 m/s 738 mmHg 91%
    21:00 +27°C° 0.1 mm 1 m/s 738 mmHg 93%
    22:00 +26°C° 0.1 mm 1 m/s 738 mmHg 94%
    23:00 +26°C° 0.1 mm 1 m/s 739 mmHg 95%

    11 Abril, Sábado

    Tempo Temperatura Precipitação Vento Pressão Humidade
    00:00 +24°C° 0 mm 0 m/s 738 mmHg 96%
    01:00 +24°C° 0 mm 0 m/s 738 mmHg 96%
    02:00 +24°C° 0 mm 0 m/s 737 mmHg 97%
    03:00 +24°C° 1.2 mm 0 m/s 737 mmHg 97%
    04:00 +23°C° 1.2 mm 0 m/s 738 mmHg 97%
    05:00 +23°C° 1.2 mm 0 m/s 738 mmHg 97%
    06:00 +27°C° 0.4 mm 1 m/s 738 mmHg 92%
    07:00 +28°C° 0.4 mm 1 m/s 739 mmHg 86%
    08:00 +30°C° 0.4 mm 1 m/s 739 mmHg 80%
    09:00 +31°C° 0.3 mm 1 m/s 739 mmHg 74%
    10:00 +32°C° 0.3 mm 1 m/s 739 mmHg 67%
    11:00 +34°C° 0.3 mm 1 m/s 739 mmHg 61%
    12:00 +34°C° 0.6 mm 1 m/s 738 mmHg 63%
    13:00 +33°C° 0.6 mm 1 m/s 738 mmHg 66%
    14:00 +33°C° 0.6 mm 1 m/s 737 mmHg 68%
    15:00 +31°C° 2.7 mm 1 m/s 737 mmHg 76%
    16:00 +29°C° 2.7 mm 1 m/s 737 mmHg 83%
    17:00 +28°C° 2.7 mm 2 m/s 737 mmHg 90%
    18:00 +27°C° 0.4 mm 1 m/s 738 mmHg 92%
    19:00 +27°C° 0.4 mm 1 m/s 738 mmHg 93%
    20:00 +26°C° 0.4 mm 1 m/s 739 mmHg 94%
    21:00 +26°C° 0 mm 1 m/s 739 mmHg 94%
    22:00 +24°C° 0 mm 0 m/s 739 mmHg 95%
    23:00 +24°C° 0 mm 0 m/s 739 mmHg 95%

    12 Abril, Domingo

    Tempo Temperatura Precipitação Vento Pressão Humidade
    00:00 +24°C° 0 mm 0 m/s 739 mmHg 96%
    01:00 +24°C° 0 mm 0 m/s 739 mmHg 96%
    02:00 +23°C° 0 mm 0 m/s 738 mmHg 97%
    03:00 +23°C° 0.8 mm 0 m/s 738 mmHg 97%
    04:00 +23°C° 0.8 mm 0 m/s 738 mmHg 97%
    05:00 +23°C° 0.8 mm 0 m/s 738 mmHg 98%
    06:00 +24°C° 0.1 mm 0 m/s 739 mmHg 92%
    07:00 +26°C° 0.1 mm 0 m/s 739 mmHg 87%
    08:00 +27°C° 0.1 mm 0 m/s 740 mmHg 82%
    09:00 +29°C° 0 mm 0 m/s 740 mmHg 71%
    10:00 +34°C° 0 mm 1 m/s 739 mmHg 60%
    11:00 +36°C° 0 mm 1 m/s 739 mmHg 49%
    12:00 +35°C° 0 mm 1 m/s 738 mmHg 52%
    13:00 +34°C° 0 mm 1 m/s 738 mmHg 55%
    14:00 +34°C° 0 mm 1 m/s 737 mmHg 58%
    15:00 +33°C° 0.2 mm 1 m/s 737 mmHg 65%
    16:00 +32°C° 0.2 mm 1 m/s 737 mmHg 71%
    17:00 +31°C° 0.2 mm 1 m/s 737 mmHg 77%
    18:00 +29°C° 0.3 mm 1 m/s 738 mmHg 83%
    19:00 +28°C° 0.3 mm 1 m/s 738 mmHg 88%
    20:00 +27°C° 0.3 mm 1 m/s 739 mmHg 93%
    21:00 +26°C° 0 mm 1 m/s 739 mmHg 94%
    22:00 +26°C° 0 mm 1 m/s 739 mmHg 95%
    23:00 +26°C° 0 mm 1 m/s 739 mmHg 97%
    Mostrar mais